Location: Bremen
(53.0793°N, 8.8017°E)
Time: 06:00:42
(UTC+02:00)

ISS - Visible Passes

Search period start: 21 October 2018 00:00
Search period end: 30 October 2018 23:00
Orbit: 403 x 408 km, 51.6° (Epoch: 21 October)

Date Brightness Start Highest point End Pass type
(mag) Time Alt. Az. Time Alt. Az. Time Alt. Az.
28 Oct -1.0 05:59:00 10° S 06:01:08 16° SE 06:03:16 10° ESE visible
29 Oct -0.7 05:08:36 10° SSE 05:09:21 11° SE 05:10:07 10° SE visible
29 Oct -2.3 06:42:05 10° SW 06:45:08 36° SSE 06:48:13 10° E visible
30 Oct -1.9 05:50:24 10° SSW 05:53:12 26° SSE 05:56:03 10° E visible
